Regional Weather Roundup
Issued by NWS

Home | Current Version | Previous Version | Text Only | Print | Product List | Glossary Off
Versions: 1 2 3 4 5 6 7 8 9 10 11 12 13 14 15 16 17 18 19 20 21 22 23 24 25 26 27 28 29 30 31 32 33 34 35 36 37 38 39 40 41 42 43 44 45 46 47 48 49 50

000
ASUS43 KDTX 241210
RWRMI
MICHIGAN HOURLY REGIONAL WEATHER ROUNDUP
NATIONAL WEATHER SERVICE DETROIT/PONTIAC MI
700 AM EST FRI NOV 24 2017

NOTE: "FAIR" INDICATES FEW OR NO CLOUDS BELOW 12,000 FEET WITH NO
SIGNIFICANT WEATHER AND/OR OBSTRUCTION TO VISIBILITY.

MIZ047>049-052>055-059>063-066>070-074>076-081>083-241300-
SOUTHEAST LOWER MICHIGAN

CITY           SKY/WX    TMP DP  RH WIND       PRES   REMARKS
ADRIAN         CLEAR     28  23  81 SW8       29.89R WCI  20
6HR MIN TEMP:  27; 6HR MAX TEMP:  32;

ALMA           CLEAR     32  28  84 S10       29.76F WCI  24
ANN ARBOR      CLEAR     27  24  89 S8        29.86F WCI  19
BAD AXE        CLEAR     33  25  73 S13       29.76F WCI  23
6HR MIN TEMP:  29; 6HR MAX TEMP:  33;

CARO           CLEAR     33  26  74 S9        29.76F WCI  25
DETROIT CITY   CLEAR     34  24  67 SW12      29.87F WCI  25
6HR MIN TEMP:  31; 6HR MAX TEMP:  37;

DETROIT        PTCLDY    30  25  81 S9        29.89R WCI  22
6HR MIN TEMP:  28; 6HR MAX TEMP:  33;

FLINT          CLEAR     35  24  64 SW9       29.81F WCI  28
6HR MIN TEMP:  32; 6HR MAX TEMP:  35;

GROSSE ILE     CLEAR     35  29  80 SW7       29.89R WCI  29
6HR MIN TEMP:  33; 6HR MAX TEMP:  36;

HILLSDALE      CLEAR     32  23  69 S7        29.83F WCI  26
HOWELL         CLEAR     33  25  73 S8        29.82S WCI  26
6HR MIN TEMP:  32; 6HR MAX TEMP:  33;


CITY           SKY/WX    TMP DP  RH WIND       PRES   REMARKS
JACKSON        CLEAR     34  23  64 S8        29.83F WCI  27
6HR MIN TEMP:  33; 6HR MAX TEMP:  35;

LAMBERTVILLE   CLEAR     33  25  72 S6        29.90R WCI  28
6HR MIN TEMP:  32; 6HR MAX TEMP:  35;

LANSING        CLEAR     34  25  69 SW10      29.81F WCI  26
6HR MIN TEMP:  32; 6HR MAX TEMP:  34;

LAPEER         FAIR      32  25  74 S7        29.80F WCI  26
6HR MIN TEMP:  31; 6HR MAX TEMP:  33;

MASON          CLEAR     34  25  71 S5        29.81F WCI  29
MONROE         CLEAR     32  25  77 S6        29.89R WCI  26
6HR MIN TEMP:  29; 6HR MAX TEMP:  34;

MT. CLEMENS    CLEAR     32  27  83 S9        29.84F WCI  24
6HR MIN TEMP:  29; 6HR MAX TEMP:  36;

PONTIAC        MOCLDY    31  25  78 S7        29.82F WCI  24
6HR MIN TEMP:  31; 6HR MAX TEMP:  33;

PORT HOPE        N/A     35  25  66 VRB6      29.74F WCI  30
6HR MIN TEMP:  32; 6HR MAX TEMP:  35;

PORT HURON     CLEAR     32  27  80 SW3       29.84F
TRI CITIES     PTCLDY    33  27  78 S12       29.76F WCI  24
6HR MIN TEMP:  31; 6HR MAX TEMP:  34;

MIDLAND        FAIR      33  27  78 S7        29.75S WCI  26
6HR MIN TEMP:  28; 6HR MAX TEMP:  33;

TROY           CLEAR     33  25  70 S9        29.87S WCI  26
SAGINAW HB     CLEAR     34  27  75 S12       29.76F WCI  25
$$
MIZ043>046-050>051-056>058-064>065-071>073-077>080-241300-
SOUTHWEST LOWER MICHIGAN

CITY           SKY/WX    TMP DP  RH WIND       PRES   REMARKS
BATTLE CREEK   CLEAR     32  24  72 SW10      29.82F WCI  24
6HR MIN TEMP:  30; 6HR MAX TEMP:  33;

BENTON HARBOR  PTCLDY    35  25  66 S8        29.81F WCI  29
6HR MIN TEMP:  34; 6HR MAX TEMP:  36;

BIG RAPIDS     CLEAR     33  31  92 S5        29.71F WCI  29
6HR MIN TEMP:  26; 6HR MAX TEMP:  34;

COLDWATER      CLEAR     33  23  65 S5        29.84F WCI  29
6HR MIN TEMP:  32; 6HR MAX TEMP:  34;

FREMONT        FAIR      34  33  96 S7        29.73R WCI  28
HOLLAND        PTCLDY    34  27  75 S10       29.78F WCI  26
6HR MIN TEMP:  32; 6HR MAX TEMP:  34;

GRAND RAPIDS   PTCLDY    35  27  72 S13       29.77F WCI  26
6HR MIN TEMP:  31; 6HR MAX TEMP:  35;

IONIA          FAIR      33  26  75 S9        29.77F WCI  26
6HR MIN TEMP:  32; 6HR MAX TEMP:  34;

KALAMAZOO      CLEAR     32  24  72 S10       29.82F WCI  24
6HR MIN TEMP:  30; 6HR MAX TEMP:  33;

LUDINGTON      CLOUDY    44  36  73 S15G22    29.67F
6HR MIN TEMP:  36; 6HR MAX TEMP:  44;

MARSHALL       CLEAR     32  23  68 SW7       29.82F WCI  26
6HR MIN TEMP:  32; 6HR MAX TEMP:  34;

MOUNT PLEASANT CLEAR     32  26  78 S5        29.73F WCI  28
6HR MIN TEMP:  31; 6HR MAX TEMP:  33;

MUSKEGON       CLOUDY    45  35  68 SW17G24   29.74F
6HR MIN TEMP:  29; 6HR MAX TEMP:  45;

SOUTH HAVEN    CLOUDY    37  26  66 S9        29.79F WCI  30
$$
MIZ016>042-241300-
NORTHERN LOWER MICHIGAN

CITY           SKY/WX    TMP DP  RH WIND       PRES   REMARKS
ALPENA         MOCLDY    34  30  85 S9        29.62F WCI  27
6HR MIN TEMP:  28; 6HR MAX TEMP:  34; 6HR PCP: TRACE;

BEAVER ISLAND  CLOUDY    46  37  73 SW21G29   29.50F
6HR MIN TEMP:  41; 6HR MAX TEMP:  46;

BELLAIRE       PTCLDY    40  34  78 S10       29.60F WCI  34
6HR MIN TEMP:  33; 6HR MAX TEMP:  40;

CADILLAC       CLOUDY    36  32  86 SW14G20   29.65F WCI  27
CHARLEVOIX     PTCLDY    42  32  68 S15G23    29.58F
6HR MIN TEMP:  33; 6HR MAX TEMP:  42;

FRANKFORT      PTCLDY    45  34  66 S13G24    29.61F
GAYLORD        MOCLDY    35  28  75 SW17G28   29.58F WCI  25
6HR MIN TEMP:  30; 6HR MAX TEMP:  35; 6HR PCP: TRACE;

GRAYLING       MOCLDY    34  28  80 S7        29.64F WCI  28
6HR MIN TEMP:  29; 6HR MAX TEMP:  34;

HARBOR SPRINGS CLOUDY    40  31  71 SW12G18   29.56F WCI  33
HOUGHTON LAKE  MOCLDY    34  29  82 S12G18    29.67F WCI  25
6HR MIN TEMP:  28; 6HR MAX TEMP:  35;

MANISTEE       PTCLDY    38  33  82 VRB5      29.64F WCI  34
OSCODA         CLOUDY    34  27  75 SW15G23   29.68F WCI  24
6HR MIN TEMP:  26; 6HR MAX TEMP:  34;

PELLSTON       CLOUDY    41  31  67 SW15G29   29.54F
6HR MIN TEMP:  34; 6HR MAX TEMP:  41;

ROGERS CITY    CLOUDY    36  30  79 S9        29.58F WCI  29
TRAVERSE CITY  CLOUDY    41  31  67 SW12G21   29.59F
6HR MIN TEMP:  35; 6HR MAX TEMP:  41;

$$
MIZ007>008-015-241300-
EASTERN UPPER MICHIGAN

CITY           SKY/WX    TMP DP  RH WIND       PRES   REMARKS
KINROSS        LGT RAIN  38  33  82 S12G17    29.50F WCI  30
6HR MIN TEMP:  31; 6HR MAX TEMP:  38;

MACKINAC ISLAN CLOUDY    41  31  67 S12G18    29.53F
6HR MIN TEMP:  36; 6HR MAX TEMP:  41;

NEWBERRY       CLOUDY    41  38  89 S18G32    29.43F
6HR MIN TEMP:  35; 6HR MAX TEMP:  41;

S. S. MARIE    LGT RAIN  36  31  82 SE8       29.48F WCI  30
6HR MIN TEMP:  34; 6HR MAX TEMP:  36; 6HR PCP:  0.02;

MUNISING         N/A     42  31  64 S16G29    29.37F
6HR MIN TEMP:  36; 6HR MAX TEMP:  43;

$$
MIZ004>006-011>014-085-241300-
CENTRAL UPPER MICHIGAN

CITY           SKY/WX    TMP DP  RH WIND       PRES   REMARKS
MANISTIQUE     CLOUDY    42  32  68 SW17G26   29.47F
6HR MIN TEMP:  39; 6HR MAX TEMP:  42;

ESCANABA       CLOUDY    41  29  62 SW10      29.48F
6HR MIN TEMP:  38; 6HR MAX TEMP:  41; 6HR PCP: TRACE;

MENOMINEE      MOCLDY    40  30  67 SW7       29.51F
6HR MIN TEMP:  37; 6HR MAX TEMP:  40; 6HR PCP: TRACE;

SAWYER-GWINN   CLEAR     36  27  69 S14       29.38F WCI  27
$$
MIZ001>003-009>011-084-241300-
WESTERN UPPER MICHIGAN

CITY           SKY/WX    TMP DP  RH WIND       PRES   REMARKS
IRON MOUNTAIN  CLEAR     38  26  62 S7        29.42F WCI  33
6HR MIN TEMP:  34; 6HR MAX TEMP:  38; 6HR PCP: TRACE;

HOUGHTON       CLOUDY    44  31  60 SW6       29.25F
6HR MIN TEMP:  33; 6HR MAX TEMP:  44; 6HR PCP: TRACE;

COPPER HARBOR    N/A     43  30  60 W13G24    29.21F
6HR MIN TEMP:  39; 6HR MAX TEMP:  43;

IRONWOOD       MOCLDY    44  33  65 SW14G23   29.33F
6HR MIN TEMP:  40; 6HR MAX TEMP:  45;

$$

ABBREVIATIONS USED IN REMARKS
   TC - TEMPERATURE IN CELSIUS
  WCI - WIND CHILL INDEX
   HX - HEAT INDEX
  VSB - VISIBILITY





USA.gov is the U.S. government's official web portal to all federal, state and local government web resources and services.